Flag for Germany Past Weather in Langenfeld (Rheinland), North Rhine-Westphalia, Germany — Yesterday and Last 2 Weeks

Now
73 °F

Clear.


Feels Like: 76 °F
Forecast: 69 / 91 °F
Wind: 13 mph from Southeast

Location: Duesseldorf

Current Time: Aug 26, 2016 at 5:34:01 AM

Latest Report: Aug 26, 2016 at 4:50 AM


Visibility: 10 mi

Pressure: 29.95 "Hg

Humidity: 61%

Dew Point: 59 °F

Location of Langenfeld (Rheinland)Location

Past Weather in Langenfeld (Rheinland) — Graph

°F

Langenfeld (Rheinland) Temperature Yesterday

Maximum temperature yesterday: 91 °F (at 3:20 PM)
Minimum temperature yesterday: 72 °F (at 12:20 AM)
Average temperature yesterday: 81 °F

High & Low Weather Summary for the Past Weeks

 TemperatureHumidityPressure
High91 °F (Aug 25, 3:20 PM)100% (Aug 11, 4:20 AM)30.33 "Hg (Aug 11, 4:20 AM)
Low45 °F (Aug 11, 4:20 AM)26% (Aug 25, 3:20 PM)29.77 "Hg (Aug 18, 2:50 PM)
Average67 °F72%30.08 "Hg
* Reported Aug 11 4:20 AM — Aug 26 4:20 AM, Langenfeld (Rheinland), Weather by CustomWeather, © 2016

Note: Actual official high and low records may vary slightly from our data, if they occured in-between our weather recording intervals... More about our weather records

Advertising

Langenfeld (Rheinland) Weather History for the Previous 24 Hours

Scroll right to see more
 ConditionsComfort  
Time TempWeatherWind HumidityBarometerVisibility
4:20 AM
Fri, Aug 26
73 °FClear.13 mph61%29.95 "Hg10 mi
3:50 AM75 °FClear.13 mph57%29.95 "Hg10 mi
3:20 AM75 °FClear.13 mph57%29.95 "Hg10 mi
2:50 AM75 °FClear.13 mph57%29.95 "Hg10 mi
2:20 AM75 °FClear.13 mph57%29.95 "Hg10 mi
1:50 AM77 °FClear.13 mph54%29.95 "Hg10 mi
1:20 AM77 °FClear.13 mph54%29.95 "Hg10 mi
12:50 AM77 °FClear.13 mph54%29.95 "Hg10 mi
12:20 AM79 °FClear.13 mph51%29.95 "Hg10 mi
11:50 PM
Thu, Aug 25
79 °FClear.12 mph51%29.95 "Hg10 mi
11:20 PM81 °FClear.14 mph48%29.95 "Hg10 mi
10:50 PM81 °FClear.13 mph48%29.95 "Hg10 mi
10:20 PM81 °FClear.12 mph48%29.95 "Hg10 mi
9:50 PM81 °FPassing clouds.6 mph48%29.95 "HgN/A
9:20 PM79 °FSunny.6 mph54%29.95 "Hg10 mi
8:50 PM79 °FPassing clouds.5 mph54%29.95 "HgN/A
8:20 PM84 °FSunny.6 mph43%29.95 "Hg10 mi
7:50 PM88 °FPassing clouds.6 mph35%29.95 "HgN/A
7:20 PM90 °FPassing clouds.8 mph33%29.92 "HgN/A
6:50 PM91 °FPassing clouds.9 mph30%29.95 "HgN/A
6:20 PM91 °FPassing clouds.9 mph30%29.95 "HgN/A
5:50 PM91 °FPassing clouds.10 mph28%29.95 "HgN/A
5:20 PM91 °FPassing clouds.10 mph28%29.95 "HgN/A
4:50 PM91 °FPassing clouds.12 mph28%29.95 "HgN/A
4:20 PM91 °FPassing clouds.14 mph30%29.98 "HgN/A
3:50 PM91 °FPassing clouds.12 mph28%29.98 "HgN/A
3:20 PM91 °FPassing clouds.12 mph26%29.98 "HgN/A
2:50 PM90 °FPassing clouds.13 mph29%29.98 "HgN/A
2:20 PM90 °FPassing clouds.10 mph27%29.98 "HgN/A
1:50 PM90 °FPassing clouds.14 mph29%30.01 "HgN/A
1:20 PM88 °FPassing clouds.15 mph33%30.01 "HgN/A
12:50 PM86 °FSunny.16 mph33%30.01 "Hg10 mi
12:20 PM86 °FPassing clouds.15 mph38%30.01 "HgN/A
11:50 AM84 °FSunny.16 mph40%30.04 "Hg10 mi
11:20 AM82 °FPassing clouds.18 mph45%30.04 "HgN/A
10:50 AM81 °FSunny.20 mph48%30.04 "Hg10 mi
10:20 AM81 °FSunny.16 mph48%30.04 "Hg10 mi
9:50 AM79 °FSunny.17 mph51%30.04 "Hg10 mi
9:20 AM77 °FPassing clouds.15 mph54%30.04 "HgN/A
8:50 AM75 °FSunny.15 mph57%30.04 "Hg10 mi
8:20 AM75 °FSunny.13 mph57%30.04 "Hg10 mi
7:50 AM73 °FSunny.14 mph61%30.04 "Hg10 mi
7:20 AM73 °FPassing clouds.10 mph61%30.04 "HgN/A
6:50 AM72 °FClear.10 mph65%30.04 "Hg10 mi
6:20 AM72 °FPassing clouds.9 mph65%30.07 "HgN/A
5:50 AM72 °FClear.9 mph65%30.04 "Hg10 mi
5:20 AM72 °FClear.9 mph65%30.07 "Hg10 mi
Weather by CustomWeather, © 2016

See weather overviewHow to use our weather pages